Home   Weather   Bregenz   Past weeks

Flag for Austria Past Weather in Bregenz, Vorarlberg, Austria — Yesterday and Last 2 Weeks

Now
28 °F

Chilly.


Feels Like: 28 °F
Forecast: 31 / 44 °F
Wind: 1 mph from Northwest

Location: Bregenz

Current Time: Dec 11, 2016 at 7:20:42 am

Latest Report: Dec 11, 2016 at 6:00 am


Visibility: N/A

Pressure: 30.35 "Hg

Humidity: 98%

Dew Point: 28 °F

Location of BregenzLocation

Past Weather in Bregenz — Graph

°F

Bregenz Temperature Yesterday

Maximum temperature yesterday: 38 °F (at 2:00 pm)
Minimum temperature yesterday: 28 °F (at 5:00 am)
Average temperature yesterday: 31 °F

High & Low Weather Summary for the Past Weeks

 TemperatureHumidityPressure
High47 °F (Nov 27, 1:00 pm)100% (Dec 6, 10:00 am)30.69 "Hg (Dec 6, 10:00 am)
Low24 °F (Nov 29, 7:00 am)50% (Dec 1, 1:00 pm)30.01 "Hg (Nov 27, 3:00 pm)
Average34 °F85%30.39 "Hg
* Reported Nov 26 6:00 am — Dec 11 6:00 am, Bregenz, Weather by CustomWeather, © 2016

Note: Actual official high and low records may vary slightly from our data, if they occured in-between our weather recording intervals... More about our weather records

Advertising

Bregenz Weather History for the Previous 24 Hours

Scroll right to see more
 ConditionsComfort  
Time TempWeatherWind HumidityBarometerVisibility
6:00 am
Sun, Dec 11
28 °FChilly.1 mph98%30.35 "HgN/A
5:00 am29 °FChilly.No wind98%30.32 "HgN/A
4:00 am28 °FChilly.1 mph98%30.31 "HgN/A
3:00 am29 °FChilly.1 mph97%30.32 "HgN/A
2:00 am29 °FChilly.1 mph97%30.33 "HgN/A
1:00 am28 °FChilly.1 mph98%30.33 "HgN/A
12:00 am29 °FChilly.1 mph94%30.35 "HgN/A
10:00 pm
Sat, Dec 10
29 °FChilly.No wind92%30.36 "HgN/A
9:00 pm30 °FChilly.1 mph93%30.38 "HgN/A
8:00 pm30 °FChilly.1 mph94%30.39 "HgN/A
7:00 pm31 °FChilly.1 mph94%30.38 "HgN/A
6:00 pm32 °FChilly.1 mph95%30.39 "HgN/A
5:00 pm33 °FChilly.1 mph93%30.39 "HgN/A
4:00 pm35 °FChilly.No wind90%30.38 "HgN/A
3:00 pm37 °FChilly.1 mph88%30.39 "HgN/A
2:00 pm38 °FChilly.1 mph81%30.40 "HgN/A
1:00 pm38 °FPassing clouds.2 mph81%30.41 "Hg6 mi
12:00 pm36 °FChilly.2 mph85%30.43 "HgN/A
11:00 am33 °FChilly.No wind87%30.45 "HgN/A
10:00 am29 °FFog.1 mph92%30.47 "Hg3 mi
9:00 am28 °FChilly.1 mph92%30.49 "HgN/A
8:00 am29 °FChilly.1 mph98%30.46 "HgN/A
7:00 am28 °FFog.1 mph94%30.47 "Hg1 mi
Weather by CustomWeather, © 2016

See weather overviewHow to use our weather pages